Wind_Speed
4 4 10 15 20 19 16 15 16 17 17 18 17 15 15 16 17 19 12 13 15 17 23 37 33 32 25 25 26 26 26 26 26 22 22 24 26 24 22 21 21 21 21
4 6 11 15 15 16 18 17 20 22 20 19 18 17 14 15 14 15 13 11 11 13 15 22 26 24 23 22 22 25 26 24 27 27 25 25 23 24 24 23 22 21 22
5 7 10 13 15 12 15 15 16 22 22 21 20 18 17 16 15 15 13 12 13 14 15 13 20 24 29 30 30 27 27 27 25 27 27 29 25 23 25 24 23 22 21
15 15 16 14 14 13 19 25 26 29 27 21 20 20 18 15 15 16 16 15 14 13 12 12 10 15 27 29 32 34 35 35 25 25 23 26 29 27 25 25 25 24 23
12 14 15 18 19 21 21 25 24 33 32 25 21 19 19 20 19 16 17 19 21 19 17 16 16 17 12 14 25 26 26 27 23 26 22 22 22 25 27 27 26 25 26
9 12 16 20 19 20 22 24 29 33 33 27 23 20 18 18 19 22 19 18 20 21 24 24 22 22 21 23 21 18 16 18 17 21 22 20 21 24 26 27 27 26 27
13 14 17 19 21 21 23 28 32 33 28 26 24 23 22 22 20 20 21 21 19 21 23 22 25 28 28 25 26 25 25 25 25 23 21 21 21 22 25 29 32 30 27
14 17 18 21 23 24 28 31 34 30 30 28 27 24 21 22 22 22 21 21 22 21 22 23 24 23 25 28 32 31 29 29 28 27 27 25 26 23 23 19 27 27 28
17 18 19 23 25 29 33 34 30 30 29 29 28 27 25 24 24 25 24 22 23 22 24 23 23 24 25 26 26 28 33 34 33 31 30 28 28 26 26 25 22 20 20
18 20 24 27 30 33 31 29 29 31 30 29 29 30 31 29 28 27 27 28 26 24 24 24 24 25 25 26 26 26 25 27 31 34 33 32 31 30 28 28 27 26 25
19 24 29 31 31 30 28 29 31 31 30 30 30 30 30 31 30 28 28 30 30 29 26 26 26 31 25 27 27 27 26 25 27 29 30 31 33 34 33 33 30 29 27
23 25 26 26 26 28 28 28 29 30 30 30 31 30 30 31 32 32 29 30 31 31 30 29 32 32 28 30 30 30 30 30 30 29 30 28 29 30 32 33 33 33 32
24 24 24 25 25 26 27 27 28 29 29 28 28 27 27 28 30 31 29 29 29 29 30 32 32 34 34 34 34 34 33 33 34 34 31 29 28 29 30 32 31 31 32
27 24 25 25 25 25 25 26 27 28 30 31 31 30 29 29 31 31 30 29 28 29 30 29 29 31 34 36 37 38 38 37 36 37 35 32 31 34 31 30 32 32 31
26 25 24 22 22 24 25 26 28 31 32 33 34 34 34 33 32 32 32 31 31 31 31 29 29 30 31 33 31 35 35 32 31 31 36 38 34 32 32 35 37 36 37
25 22 22 23 24 25 27 28 30 30 32 34 35 35 35 36 35 35 35 33 32 34 33 34 32 29 30 31 33 36 32 31 34 35 36 36 34 33 33 34 35 34 36
20 19 20 22 24 25 26 27 27 30 32 32 33 34 35 36 37 37 38 36 35 35 34 34 31 25 28 30 30 32 35 37 33 29 29 30 30 30 32 34 34 33 33
19 20 21 22 23 24 25 26 27 28 29 32 36 38 38 39 39 39 39 39 38 37 36 35 34 33 28 29 31 29 30 32 36 39 40 38 34 30 28 28 29 29 28
19 19 20 21 22 23 24 25 26 27 28 29 31 35 41 41 43 42 41 40 38 38 36 35 33 32 33 35 33 32 29 30 32 31 36 40 41 40 33 31 33 35 35
18 19 20 21 22 23 24 25 25 26 28 31 35 40 44 43 41 40 38 37 35 32 33 33 33 31 32 35 32 33 31 31 30 29 25 25 27 37 37 35 36 37 34
18 18 19 21 21 21 22 23 24 26 30 35 40 43 42 43 40 39 39 35 32 29 28 29 29 31 26 28 33 34 33 34 34 26 27 26 25 26 36 40 39 39 37
16 17 18 18 19 21 22 22 23 24 29 34 40 45 47 46 41 38 36 32 30 29 31 30 26 26 26 25 25 27 28 31 28 27 27 27 26 28 32 37 40 39 39
14 15 16 18 19 20 21 21 21 22 27 32 36 39 44 49 48 41 39 36 30 28 27 26 28 24 27 22 21 23 23 25 30 31 30 28 28 27 29 32 35 33 36
12 14 16 17 17 18 20 21 21 24 27 30 34 38 39 42 46 48 42 37 35 31 26 23 21 21 21 20 24 26 23 24 25 31 33 28 27 34 35 30 34 34 35
12 14 14 16 18 19 20 22 23 24 27 29 32 35 39 42 43 45 48 38 33 32 29 24 20 18 17 19 24 23 23 25 23 29 29 31 31 31 35 36 35 36 36
12 13 14 15 17 19 21 22 24 26 28 30 32 35 37 39 41 43 44 49 40 34 32 28 22 17 16 15 17 19 20 23 26 25 27 28 28 30 33 35 34 34 34
Wind_Direction
247 326 349 352 348 339 336 341 348 345 340 332 323 313 315 327 339 347 333 285 280 278 264 250 248 242 251 255 260 258 254 258 262 258 256 255 261 262 264 265 264 265 268
263 337 354 358 4 0 3 360 360 350 346 339 328 327 319 310 321 331 345 324 296 291 294 254 232 235 249 254 261 263 256 256 263 260 258 261 259 260 259 261 259 267 263
294 327 352 358 14 28 23 13 3 3 351 339 331 325 321 317 304 306 316 308 312 313 291 289 262 249 253 258 267 266 271 261 263 263 259 258 257 257 259 259 256 256 257
281 297 314 343 350 336 340 351 352 358 354 346 335 326 323 309 303 295 284 286 287 292 296 292 289 284 268 260 267 261 266 272 256 265 268 267 256 257 260 260 257 256 254
270 291 314 339 345 340 338 343 343 343 345 343 339 335 326 318 303 293 288 281 275 274 274 276 271 271 296 275 267 270 259 256 261 260 261 267 260 252 257 258 257 253 253
264 295 314 331 326 327 334 332 334 334 337 335 335 332 325 316 309 303 294 284 279 275 265 262 260 261 263 267 268 275 284 271 278 273 268 272 270 267 260 260 252 254 252
281 298 313 325 329 314 326 326 327 329 329 328 326 325 323 318 311 302 298 295 285 278 274 271 267 266 265 263 267 268 268 271 274 271 269 271 275 276 264 256 253 251 253
287 295 305 315 317 314 318 319 318 320 323 324 323 322 319 313 311 307 301 294 289 282 275 272 272 270 270 268 263 264 266 267 268 270 271 270 270 277 271 272 249 248 259
294 300 300 308 309 311 312 311 312 316 317 318 317 317 316 313 310 307 303 296 290 285 282 279 272 269 266 265 269 267 264 265 265 266 268 269 270 272 277 278 281 263 276
291 298 300 301 302 304 306 307 310 313 313 312 311 311 311 309 306 303 299 296 291 285 282 279 277 272 266 264 265 266 267 269 268 265 262 263 265 266 264 268 273 274 270
293 293 295 299 303 306 310 310 310 310 311 310 310 311 309 307 305 303 299 294 292 289 283 277 273 272 269 267 265 263 265 265 266 265 267 265 263 262 262 263 267 267 266
300 304 307 308 308 307 309 310 311 311 312 312 311 312 311 308 306 305 302 298 296 292 287 278 272 272 269 267 266 264 262 262 265 268 269 268 266 266 266 263 262 262 261
319 312 312 312 314 316 316 317 316 316 317 316 316 314 312 308 304 302 301 297 295 294 288 282 277 273 269 265 264 265 265 264 265 268 267 263 266 270 269 269 264 264 263
320 317 316 317 319 319 321 322 320 321 322 322 320 319 316 313 309 308 306 302 298 294 291 290 286 277 272 268 266 265 264 265 265 265 265 264 262 259 259 261 266 268 268
320 317 316 317 320 321 324 327 328 326 325 324 324 323 320 318 315 312 308 304 300 298 295 293 289 284 278 271 266 261 260 262 265 267 268 268 268 270 271 269 268 265 266
315 316 320 323 324 325 326 326 324 323 322 322 322 320 319 318 316 313 310 308 304 298 295 294 291 285 277 273 270 265 260 259 260 256 255 260 262 260 264 269 271 271 273
310 313 316 318 319 321 323 324 323 322 321 320 319 319 320 318 315 313 310 308 304 300 297 294 290 285 276 271 273 270 260 250 246 252 252 253 259 267 272 270 265 269 270
309 312 316 321 324 325 324 324 323 322 322 322 321 320 321 321 317 313 307 304 300 297 295 293 290 281 276 277 266 273 272 262 256 253 247 244 243 247 255 263 270 267 263
315 320 324 326 325 325 327 329 328 328 329 328 327 326 324 324 319 315 309 302 296 291 287 288 294 289 280 274 281 277 272 270 268 270 269 259 251 248 243 251 255 257 259
322 327 328 329 330 333 335 334 335 335 335 335 335 334 331 328 325 320 315 307 300 292 284 278 289 288 284 270 274 282 271 262 263 260 259 257 266 248 243 241 251 256 257
328 330 332 337 339 339 340 342 341 341 344 348 348 347 344 340 336 331 327 321 312 306 300 287 283 282 286 285 270 275 274 260 266 250 251 247 245 252 248 244 248 253 255
334 339 341 343 345 346 346 345 346 347 353 355 357 358 357 353 347 342 336 324 317 314 310 301 296 282 286 283 281 274 273 263 249 243 249 251 246 248 243 242 248 252 254
341 343 348 352 352 349 351 351 348 351 355 357 357 359 2 3 359 351 347 344 331 317 308 314 296 292 277 281 279 283 277 276 245 251 240 252 251 243 244 250 254 255 253
349 356 359 357 356 355 357 352 350 349 349 352 358 359 360 2 4 4 355 349 346 337 324 316 317 295 282 290 291 282 274 270 260 241 255 260 256 255 260 255 250 252 254
9 4 4 5 7 5 1 360 357 356 356 357 358 357 357 359 1 1 3 358 352 351 343 328 322 306 309 288 286 282 278 276 275 258 258 257 261 254 257 261 262 253 250
14 7 8 9 8 3 359 358 355 353 352 352 350 352 353 353 354 358 358 359 5 360 356 348 333 323 312 313 302 294 282 276 279 276 273 268 266 267 262 261 263 257 251
Height
3186 3185 3183 3181 3178 3176 3174 3171 3168 3166 3162 3159 3157 3154 3151 3148 3145 3141 3137 3136 3137 3136 3136 3136 3139 3142 3144 3145 3146 3146 3145 3147 3148 3151 3151 3150 3150 3150 3151 3151 3151 3152 3152
3182 3182 3180 3179 3177 3175 3172 3170 3166 3163 3160 3157 3154 3151 3149 3146 3144 3141 3138 3136 3135 3134 3133 3132 3133 3135 3137 3138 3140 3140 3139 3138 3141 3143 3144 3144 3145 3145 3145 3145 3146 3146 3146
3181 3179 3178 3177 3176 3174 3172 3170 3167 3163 3159 3154 3151 3147 3145 3142 3141 3140 3137 3136 3134 3133 3132 3131 3130 3130 3132 3131 3133 3135 3135 3134 3134 3134 3136 3136 3138 3138 3138 3139 3140 3140 3141
3179 3177 3176 3175 3173 3171 3169 3167 3164 3161 3157 3153 3149 3145 3141 3140 3138 3136 3136 3134 3132 3131 3130 3130 3128 3127 3124 3124 3126 3127 3127 3128 3127 3128 3128 3129 3131 3132 3131 3133 3133 3134 3135
3175 3175 3174 3172 3170 3168 3166 3164 3161 3158 3154 3151 3147 3143 3139 3136 3134 3132 3131 3129 3129 3127 3126 3126 3125 3124 3122 3120 3121 3120 3119 3120 3119 3121 3121 3122 3122 3124 3125 3126 3125 3125 3127
3174 3173 3172 3170 3167 3166 3163 3161 3158 3154 3150 3146 3143 3140 3136 3133 3130 3127 3126 3124 3123 3121 3121 3121 3120 3120 3119 3117 3116 3116 3114 3114 3115 3114 3116 3115 3117 3115 3117 3117 3118 3118 3120
3172 3171 3168 3166 3164 3162 3159 3157 3154 3150 3147 3143 3139 3136 3132 3128 3125 3122 3120 3118 3116 3115 3113 3112 3112 3112 3111 3111 3110 3110 3110 3110 3111 3111 3112 3112 3111 3110 3109 3109 3109 3110 3111
3170 3168 3165 3163 3160 3158 3155 3151 3148 3144 3140 3136 3133 3130 3127 3123 3120 3117 3115 3112 3110 3108 3106 3106 3105 3104 3104 3102 3101 3102 3103 3104 3104 3105 3105 3106 3105 3104 3104 3100 3102 3102 3103
3167 3163 3160 3158 3155 3152 3149 3145 3141 3138 3134 3130 3127 3123 3121 3118 3114 3110 3108 3106 3104 3102 3100 3099 3098 3097 3096 3095 3094 3095 3095 3096 3096 3097 3097 3098 3098 3098 3096 3095 3094 3096 3097
3162 3159 3156 3153 3150 3146 3142 3138 3135 3131 3128 3125 3121 3117 3113 3110 3107 3104 3101 3098 3096 3095 3094 3092 3091 3089 3089 3087 3086 3086 3087 3088 3088 3088 3089 3089 3090 3091 3090 3090 3090 3090 3092
3158 3155 3152 3147 3142 3138 3134 3130 3126 3123 3120 3117 3113 3109 3106 3102 3099 3096 3093 3090 3087 3086 3085 3084 3083 3080 3082 3080 3079 3078 3079 3080 3080 3080 3080 3081 3081 3082 3082 3083 3084 3085 3086
3153 3148 3144 3140 3135 3131 3128 3124 3119 3115 3112 3109 3105 3101 3097 3093 3089 3086 3083 3080 3077 3075 3075 3074 3072 3071 3073 3072 3071 3070 3070 3070 3070 3072 3072 3072 3072 3073 3072 3073 3075 3076 3077
3146 3142 3138 3134 3129 3124 3121 3117 3113 3108 3105 3102 3098 3095 3091 3087 3082 3078 3076 3073 3070 3067 3065 3063 3062 3061 3061 3062 3061 3060 3061 3060 3061 3062 3062 3063 3064 3064 3064 3065 3065 3066 3067
3139 3135 3131 3126 3122 3118 3114 3111 3106 3101 3097 3092 3089 3086 3083 3080 3074 3070 3067 3065 3062 3059 3056 3054 3051 3050 3050 3050 3050 3050 3050 3051 3051 3052 3053 3054 3055 3054 3055 3056 3055 3056 3057
3132 3129 3125 3121 3118 3114 3109 3104 3098 3093 3090 3086 3081 3077 3074 3071 3067 3061 3056 3054 3051 3048 3045 3044 3042 3040 3039 3038 3037 3037 3037 3040 3042 3044 3043 3043 3044 3044 3045 3045 3045 3047 3047
3127 3124 3119 3116 3113 3108 3103 3098 3093 3090 3085 3080 3075 3071 3068 3062 3057 3052 3047 3044 3041 3037 3035 3032 3032 3031 3029 3027 3026 3026 3026 3028 3030 3032 3034 3034 3034 3035 3035 3036 3036 3036 3037
3123 3118 3115 3112 3108 3105 3099 3095 3091 3086 3080 3075 3070 3065 3061 3055 3049 3044 3039 3035 3031 3027 3024 3022 3021 3020 3018 3017 3015 3014 3014 3016 3018 3020 3021 3024 3025 3025 3025 3026 3027 3027 3027
3118 3115 3110 3105 3101 3097 3093 3090 3086 3082 3078 3072 3064 3058 3054 3048 3041 3035 3029 3024 3020 3016 3012 3010 3008 3007 3007 3004 3004 3004 3003 3003 3005 3006 3008 3010 3012 3014 3016 3017 3018 3019 3020
3112 3108 3104 3099 3096 3093 3088 3084 3081 3077 3073 3067 3062 3055 3046 3040 3031 3024 3017 3010 3007 3004 3001 2999 2997 2995 2994 2994 2993 2992 2993 2993 2994 2995 2995 2996 2999 3001 3005 3007 3008 3008 3008
3105 3102 3099 3094 3090 3087 3083 3079 3076 3072 3067 3062 3055 3047 3038 3030 3021 3013 3006 2999 2994 2991 2989 2987 2986 2984 2983 2982 2982 2981 2981 2982 2982 2983 2984 2985 2987 2989 2991 2995 2996 2997 2998
3100 3097 3094 3089 3086 3083 3080 3076 3072 3067 3062 3056 3049 3041 3032 3021 3012 3005 2997 2990 2984 2981 2977 2976 2975 2974 2972 2970 2970 2970 2969 2969 2971 2972 2973 2974 2976 2977 2980 2983 2984 2985 2987
3096 3092 3089 3086 3083 3079 3076 3072 3068 3064 3059 3053 3045 3036 3027 3017 3008 3000 2992 2985 2980 2974 2969 2966 2965 2964 2962 2961 2960 2959 2958 2959 2960 2961 2962 2963 2965 2967 2968 2971 2974 2975 2976
3093 3090 3087 3083 3080 3077 3073 3069 3066 3061 3056 3050 3043 3035 3026 3016 3007 2997 2989 2981 2974 2969 2964 2959 2956 2955 2954 2952 2952 2951 2950 2950 2950 2950 2952 2954 2955 2957 2958 2961 2963 2964 2965
3090 3087 3084 3081 3079 3075 3071 3067 3063 3058 3053 3047 3040 3033 3026 3017 3008 2998 2988 2980 2972 2965 2959 2953 2949 2947 2946 2945 2945 2944 2942 2942 2942 2943 2944 2945 2947 2949 2948 2949 2952 2951 2954
3087 3085 3083 3080 3077 3073 3070 3065 3061 3056 3051 3044 3038 3032 3025 3017 3008 2999 2990 2981 2971 2963 2956 2950 2945 2942 2941 2939 2938 2937 2936 2935 2934 2935 2935 2936 2937 2938 2939 2939 2940 2941 2942
3086 3084 3081 3078 3075 3072 3068 3063 3059 3054 3048 3043 3037 3030 3023 3016 3008 3000 2991 2981 2971 2963 2955 2949 2943 2938 2936 2934 2933 2931 2930 2929 2927 2926 2925 2925 2926 2927 2927 2928 2928 2928 2930